[Iaude] MPEC T171: 2023 TT6 [a=2.42,e=0.49,i=20.4,H=19.9]
    mpec at marsden.cfa.harvard.edu 
    mpec at marsden.cfa.harvard.edu
       
    Wed Oct 11 22:35:45 EDT 2023
    
    
  
M.P.E.C. 2023-T171                             Issued 2023 October 12, 02:34 UT
     The Minor Planet Electronic Circulars contain information on unusual
         minor planets, routine data on comets and natural satellites,
         and occasional editorial announcements.  They are published
    on behalf of Division F of the International Astronomical Union by the
          Minor Planet Center, Smithsonian Astrophysical Observatory,
                          Cambridge, MA 02138, U.S.A.
			  
             Prepared using the Tamkin Foundation Computer Network
                              MPC at CFA.HARVARD.EDU
            URL https://www.minorplanetcenter.net/    ISSN 1523-6714
                                    2023 TT6                                    
Observations:
     K23T06T  C2023 10 06.43902502 02 50.910-16 58 59.87         22.75GVET171F52
     K23T06T  C2023 10 06.44930302 02 50.149-16 59 03.14         22.45GVET171F52
     K23T06T  C2023 10 06.45961102 02 49.453-16 59 06.01         22.52GVET171F52
     K23T06T  C2023 10 06.46990502 02 48.698-16 59 08.69         22.11GVET171F52
     K23T06T* C2023 10 09.47439601 59 09.994-17 13 08.59         22.42wXET171F51
     K23T06T  C2023 10 09.48534501 59 09.132-17 13 11.20         22.58wXET171F51
     K23T06T  C2023 10 09.51830301 59 06.536-17 13 19.57         22.13wXET171F51
     K23T06T KC2023 10 10.31946901 58 05.344-17 16 39.04         22.61GVET171V06
     K23T06T KC2023 10 10.32359901 58 05.048-17 16 39.83         21.90GVET171V06
     K23T06T KC2023 10 10.32772901 58 04.717-17 16 41.16         22.69GVET171V06
     K23T06T  C2023 10 10.43543501 57 56.417-17 17 05.70         22.05GVET171F51
     K23T06T  C2023 10 10.45991901 57 54.438-17 17 11.75         22.22GVET171F51
     K23T06T  C2023 10 10.47107101 57 53.540-17 17 14.51         22.11GVET171F51
Observer details:
F51 Pan-STARRS 1, Haleakala.  Observers J. Bulger, T. Lowe, P. Minguez, A.
    Schultz, I. Smith.  Measurers K. Chambers, T. de Boer, J. Bulger, J.
    Fairlamb, H. Gao, M. Huber, C.-C. Lin, T. Lowe, E. Magnier, P. Minguez, Y.
    Ramanjooloo, A. Schultz, I. Smith, R. Wainscoat, R. Weryk.  1.8-m Ritchey-
    Chretien + CCD.
F52 Pan-STARRS 2, Haleakala.  Observers J. Bulger, T. Lowe, P. Minguez, A.
    Schultz, I. Smith.  Measurers K. Chambers, T. de Boer, J. Fairlamb, H.
    Gao, M. Huber, C.-C. Lin, E. Magnier, Y. Ramanjooloo, R. Wainscoat, R.
    Weryk.  1.8-m Ritchey-Chretien + CCD.
V06 Catalina Sky Survey-Kuiper.  Observer J. B. Fazekas.  Measurers E. C.
    Beshore, D. Fay, J. B. Fazekas, D. C. Fuls, A. R. Gibbs, A. D. Grauer, H.
    Groeller, J. K. Hogan, R. A. Kowalski, S. M. Larson, G. J. Leonard, D.
    Rankin, R. L. Seaman, F. C. Shelly, K. W. Wierzchos.  1.55-m reflector +
    1K CCD.
Orbital elements:
2023 TT6                                                 Earth MOID = 0.3527 AU
Epoch 2023 Sept. 13.0 TT = JDT 2460200.5                Alexandersen            
M 306.90570              (2000.0)            P               Q                  
n   0.26259694     Peri.   57.16976     -0.44945525     -0.83774349             
a   2.4151435      Node    62.59568     +0.65732076     -0.54524083             
e   0.4901165      Incl.   20.44592     +0.60491272     -0.02997143             
P   3.75           H   19.96          G   0.15           U   9                  
Residuals in seconds of arc
231006 F52  0.2-  0.1-    231009 F51  0.0   0.0     231010 F51  0.0   0.1+
231006 F52  0.4-  0.3-    231009 F51  0.1+  0.1-    231010 F51  0.0   0.1-
231006 F52  0.4+  0.0     231010 V06  0.3-  0.1+    231010 F51  0.0   0.2-
231006 F52  0.3+  0.4+    231010 V06  0.2+  0.4+
231009 F51  0.1-  0.2-    231010 V06  0.2+  0.0
Ephemeris:
2023 TT6                 a,e,i = 2.42, 0.49, 20                  q = 1.2314
Date    TT    R. A. (2000) Decl.     Delta      r    Elong.  Phase     V
2023 09 12    02 19 53.1 -14 19 58   1.4100  2.2321   134.2    18.9    23.4
...
2023 09 27    02 12 09.3 -16 03 06   1.2402  2.1439   145.7    15.3    22.9
...
2023 10 05    02 04 28.8 -16 51 26   1.1673  2.0960   150.4    13.6    22.7
...
2023 10 11    01 57 12.3 -17 19 13   1.1218  2.0598   152.5    12.9    22.5
2023 10 12    01 55 52.8 -17 22 52   1.1150  2.0537   152.7    12.9    22.5
2023 10 13    01 54 31.5 -17 26 11   1.1085  2.0476   152.8    12.9    22.5
...
2023 10 19    01 45 52.4 -17 38 33   1.0740  2.0110   152.5    13.2    22.4
...
2023 10 27    01 33 26.8 -17 31 07   1.0413  1.9618   149.1    15.1    22.3
...
2023 11 11    01 10 47.7 -15 52 24   1.0181  1.8689   137.0    21.2    22.4
M. P. C. Staff               (C) Copyright 2023 MPC           M.P.E.C. 2023-T171
    
    
More information about the Iaude
mailing list